Date String (YYYY-MM-DD hh:mm:ss) UTC,Instrument flags,Ambient pressure (hPa),Sample flow (lpm),Bypass flow (lpm),Sample temperature (°C),Ambient temperature (°C),ASC tube jacket temperature (°C),LED temperature (°C),Box temperature (°C),Sample RH (%),Span deviation,Mass concentration (μg/m³),Mass concentration (μg/m³),Mass concentration (μg/m³)
DateTimeUTC,F1_M11,P_M11,Q1_M11,Q2_M11,T1_M11,T2_M11,T3_M11,T4_M11,T5_M11,U1_M11,ZSPAN_M11,X0_M11,X2_M11,X1_M11
2023-01-20 11:00:00,,0826.2,5.01,0.00,22.4,21.7,00.0,31.1,24.2,08.7,0000.0,0014.75,0008.17,0007.59
2023-01-20 11:01:00,,0826.2,5.00,0.00,22.4,21.3,00.0,31.1,24.2,08.7,0000.0,0015.03,0008.19,0007.62
2023-01-20 11:02:00,,0826.2,4.99,0.00,22.4,21.0,00.0,31.1,24.1,08.8,0000.0,0016.36,0008.23,0007.67
2023-01-20 11:03:00,,0826.2,5.00,0.00,22.3,20.7,00.0,31.1,24.0,08.8,0000.0,0016.64,0008.28,0007.74
2023-01-20 11:04:00,,0826.2,5.01,0.00,22.3,20.4,00.0,31.1,23.9,08.8,0000.0,0017.38,0008.41,0007.85
2023-01-20 11:05:00,,0826.2,5.00,0.00,22.2,20.2,00.0,31.1,23.8,08.9,0000.0,0017.67,0008.58,0007.99
2023-01-20 11:06:00,,0826.2,4.99,0.00,22.2,20.1,00.0,31.0,23.8,09.0,0000.0,0017.28,0008.70,0008.08
2023-01-20 11:07:00,,0826.2,5.01,0.00,22.1,20.0,00.0,31.0,23.7,09.0,0000.0,0016.98,0008.80,0008.19
2023-01-20 11:08:00,,0826.2,5.00,0.00,22.1,19.9,00.0,31.0,23.7,08.9,0000.0,0016.95,0008.88,0008.29
2023-01-20 11:09:00,,0826.2,5.03,0.00,22.0,19.8,00.0,31.0,23.6,09.0,0000.0,0016.53,0009.05,0008.42
2023-01-20 11:10:00,,0826.5,5.00,0.00,22.0,20.2,00.0,30.9,23.7,08.9,0000.0,0016.52,0009.13,0008.50
2023-01-20 11:11:00,,0826.3,5.01,0.00,22.1,21.4,00.0,30.9,23.9,08.9,0000.0,0016.62,0009.23,0008.61
2023-01-20 11:12:00,,0826.3,5.00,0.00,22.2,22.5,00.0,30.9,24.1,09.0,0000.0,0016.56,0009.39,0008.79
2023-01-20 11:13:00,,0826.3,4.99,0.00,22.3,22.5,00.0,31.0,24.2,08.9,0000.0,0015.45,0009.51,0008.93
2023-01-20 11:14:00,,0826.3,4.99,0.00,22.3,22.0,00.0,31.0,24.2,08.9,0000.0,0015.01,0009.67,0009.08
2023-01-20 11:15:00,,0826.3,5.01,0.00,22.3,21.5,00.0,31.0,24.1,08.9,0000.0,0014.35,0009.76,0009.21
2023-01-20 11:16:00,,0826.3,5.00,0.00,22.3,21.0,00.0,31.0,24.0,08.9,0000.0,0015.10,0009.77,0009.28
2023-01-20 11:17:00,,0826.3,5.02,0.00,22.2,20.6,00.0,31.0,23.9,08.9,0000.0,0015.05,0009.78,0009.33
2023-01-20 11:18:00,,0826.4,5.00,0.00,22.2,20.2,00.0,31.0,23.7,08.8,0000.0,0015.64,0009.73,0009.26
2023-01-20 11:19:00,,0826.4,5.00,0.00,22.1,20.0,00.0,31.0,23.6,08.7,0000.0,0015.74,0009.65,0009.20
2023-01-20 11:20:00,,0826.3,4.99,0.00,22.0,19.9,00.0,30.9,23.6,08.8,0000.0,0015.44,0009.54,0009.12
2023-01-20 11:21:00,,0826.4,5.00,0.00,22.0,19.8,00.0,30.9,23.5,08.8,0000.0,0015.79,0009.48,0009.06
2023-01-20 11:22:00,,0826.3,4.99,0.00,22.0,19.8,00.0,30.9,23.5,08.7,0000.0,0016.20,0009.35,0008.92
2023-01-20 11:23:00,,0826.3,5.02,0.00,21.9,19.7,00.0,30.9,23.5,08.7,0000.0,0016.27,0009.14,0008.69
2023-01-20 11:24:00,,0826.2,5.01,0.00,21.9,19.7,00.0,30.8,23.4,08.8,0000.0,0015.98,0008.97,0008.51
2023-01-20 11:25:00,,0826.2,5.00,0.00,21.9,20.3,00.0,30.8,23.5,08.8,0000.0,0015.68,0008.74,0008.29
2023-01-20 11:26:00,,0826.3,4.98,0.00,22.0,21.6,00.0,30.8,23.8,08.8,0000.0,0015.30,0008.56,0008.10
2023-01-20 11:27:00,,0826.3,4.99,0.00,22.1,22.5,00.0,30.8,24.0,08.7,0000.0,0014.38,0008.46,0007.97
2023-01-20 11:28:00,,0826.3,5.00,0.00,22.2,22.4,00.0,30.8,24.1,08.7,0000.0,0014.80,0008.31,0007.83
2023-01-20 11:29:00,,0826.4,4.99,0.00,22.2,21.9,00.0,30.9,24.1,08.7,0000.0,0013.83,0008.22,0007.74
2023-01-20 11:30:00,,0826.4,5.01,0.00,22.2,21.4,00.0,30.9,23.9,08.7,0000.0,0013.53,0008.19,0007.72
2023-01-20 11:31:00,,0826.4,5.00,0.00,22.1,21.0,00.0,30.9,23.8,08.6,0000.0,0013.52,0008.10,0007.62
2023-01-20 11:32:00,,0826.5,5.01,0.00,22.1,20.7,00.0,30.9,23.8,08.6,0000.0,0013.45,0008.01,0007.54
2023-01-20 11:33:00,,0826.5,5.00,0.00,22.1,20.5,00.0,30.9,23.7,08.6,0000.0,0013.33,0008.05,0007.56
2023-01-20 11:34:00,,0826.5,5.01,0.00,22.1,20.4,00.0,30.9,23.7,08.7,0000.0,0013.15,0008.01,0007.54
2023-01-20 11:35:00,,0826.5,5.01,0.00,22.0,20.2,00.0,30.9,23.6,08.7,0000.0,0013.64,0007.92,0007.43
2023-01-20 11:36:00,,0826.5,5.00,0.00,22.0,20.0,00.0,30.8,23.5,08.7,0000.0,0014.06,0007.85,0007.33
2023-01-20 11:37:00,,0826.5,5.01,0.00,21.9,19.8,00.0,30.8,23.5,08.7,0000.0,0014.00,0007.76,0007.24
2023-01-20 11:38:00,,0826.5,5.00,0.00,21.9,19.7,00.0,30.8,23.4,08.7,0000.0,0013.87,0007.68,0007.16
2023-01-20 11:39:00,,0826.5,5.00,0.00,21.8,19.6,00.0,30.8,23.3,08.8,0000.0,0013.52,0007.61,0007.09
2023-01-20 11:40:00,,0826.5,5.00,0.00,21.8,20.3,00.0,30.7,23.5,08.9,0000.0,0013.96,0007.60,0007.05
2023-01-20 11:41:00,,0826.5,4.99,0.00,21.9,21.6,00.0,30.7,23.8,08.8,0000.0,0014.05,0007.53,0006.97
2023-01-20 11:42:00,,0826.6,5.00,0.00,22.1,22.5,00.0,30.7,24.0,08.8,0000.0,0014.10,0007.54,0006.97
2023-01-20 11:43:00,,0826.6,4.99,0.00,22.1,22.3,00.0,30.8,24.1,08.8,0000.0,0013.72,0007.51,0006.92
2023-01-20 11:44:00,,0826.6,5.02,0.00,22.2,21.7,00.0,30.8,24.0,08.7,0000.0,0013.33,0007.50,0006.92
2023-01-20 11:45:00,,0826.7,5.01,0.00,22.1,21.2,00.0,30.8,23.9,08.7,0000.0,0013.33,0007.55,0006.98
2023-01-20 11:46:00,,0826.7,5.00,0.00,22.1,20.8,00.0,30.8,23.8,08.7,0000.0,0013.47,0007.59,0007.04
2023-01-20 11:47:00,,0826.7,5.02,0.00,22.1,20.5,00.0,30.8,23.7,08.8,0000.0,0013.32,0007.66,0007.12
2023-01-20 11:48:00,,0826.7,5.01,0.00,22.0,20.2,00.0,30.8,23.6,08.8,0000.0,0013.89,0007.75,0007.17
2023-01-20 11:49:00,,0826.7,5.00,0.00,22.0,20.0,00.0,30.8,23.5,08.8,0000.0,0014.09,0007.88,0007.27
2023-01-20 11:50:00,,0826.7,5.00,0.00,21.9,19.8,00.0,30.8,23.4,08.9,0000.0,0013.92,0008.05,0007.44
2023-01-20 11:51:00,,0826.7,4.99,0.00,21.8,19.6,00.0,30.8,23.3,09.0,0000.0,0013.54,0008.25,0007.68
2023-01-20 11:52:00,,0826.7,5.03,0.00,21.8,19.4,00.0,30.7,23.2,09.1,0000.0,0014.16,0008.48,0007.91
2023-01-20 11:53:00,,0826.9,5.02,0.00,21.7,19.7,00.0,30.7,23.2,09.1,0000.0,0014.41,0008.77,0008.21
2023-01-20 11:54:00,,0826.7,5.00,0.00,21.8,20.8,00.0,30.6,23.5,09.1,0000.0,0014.97,0009.11,0008.56
2023-01-20 11:55:00,,0826.7,5.01,0.00,21.9,22.0,00.0,30.6,23.8,09.0,0002.5,0015.48,0009.38,0008.85
2023-01-20 11:56:00,,0826.8,4.99,0.00,22.0,22.1,00.0,30.7,23.9,09.0,0002.6,0015.87,0009.69,0009.14
2023-01-20 11:57:00,,0826.7,4.98,0.00,22.0,21.5,00.0,30.7,23.8,09.1,0001.9,0016.22,0010.01,0009.48
2023-01-20 11:58:00,,0826.7,5.00,0.00,22.0,20.9,00.0,30.7,23.6,09.3,0001.8,0016.36,0010.32,0009.83
2023-01-20 11:59:00,,0826.7,4.97,0.00,21.9,20.4,00.0,30.7,23.5,09.3,0002.1,0016.17,0010.66,0010.19
